{"data":{"norad_id":68171,"epoch":"2026-09-19T22:54:43.254720Z","epoch_age_seconds":103201,"freshness":"FRESH","line1":"1 68171U 26050E   26262.95466730  .00011922  00000+0  36328-3 0  9993","line2":"2 68171  53.1597  80.3200 0000920  94.8638 265.2470 15.34412250 30485","mean_motion":15.3441225,"eccentricity":9.2e-5,"inclination_deg":53.1597,"raan_deg":80.32,"arg_perigee_deg":94.8638,"mean_anomaly_deg":265.247,"bstar":0.00036328,"rev_number":3048,"period_min":93.847008846547,"perigee_km":462.03747691533,"apogee_km":463.2961848202,"semimajor_km":6840.8038308678,"source":"CELESTRAK","updated_at":"2026-09-20T09:00:43.799224Z"}}